Location: Poughquag
(41.6090°N, 73.6820°W)
Time: 16:34:25
(UTC-05:00)

Envisat - Pass Details

Date: 23 January 2020
Orbit: 764 x 766 km, 98.1° (Epoch: 24 February)

Event Time Altitude Azimuth Distance (km) Brightness Sun altitude
Rises 05:47:23 0° 24° (NNE) 3,240 6.4 -16.3°
Reaches altitude 10° 05:50:00 10° 36° (NE) 2,309 5.8 -15.8°
Maximum altitude 05:54:23 29° 95° (E) 1,393 5.2 -15.0°
Drops below altitude 10° 05:58:43 10° 154° (SSE) 2,293 6.0 -14.2°
Sets 06:01:18 0° 166° (SSE) 3,214 6.6 -13.7°
